Regional Weather Roundup
Issued by NWS

Home | Current Version | Previous Version | Text Only | Print | Product List | Glossary On
Versions: 1 2 3 4 5 6 7 8 9 10 11 12 13 14 15 16 17 18 19 20 21 22 23 24 25 26 27 28 29 30 31 32 33 34 35 36 37 38 39 40 41 42 43 44 45 46 47 48 49 50
000
ASUS45 KABQ 291710
RWRNM
NEW MEXICO REGIONAL WEATHER ROUNDUP
NATIONAL WEATHER SERVICE ALBUQUERQUE NM
1100 AM MDT SAT AUG 29 2015

NOTE: "FAIR" MEANS FEW OR NO CLOUDS BELOW 12,000 FEET AGL WITH NO
       SIGNIFICANT WEATHER OR OBSTRUCTIONS TO VISION.

      THIS PRODUCT IS RELEASED AS TWO VERSIONS.  ONE VERSION NEAR
      THE TOP OF THE HOUR CONTAINING PRELIMINARY DATA FROM ALBUQUERQUE
      AND OTHER STATIONS.  A FINAL VERSION WITH ADDITIONAL DATA IS
      ISSUED ABOUT 10 MINUTES AFTER THE HOUR.

NMZ501-503-504-510>518-291800-
NORTHWEST PLATEAU/NORTHCENTRAL MOUNTAINS

CITY           SKY/WX    TMP DP  RH WIND       PRES   REMARKS
FARMINGTON     SUNNY     79  49  34 E9G17     30.30S
LOS ALAMOS     SUNNY     71  50  47 NE3       30.45S
SANTA FE       SUNNY     77  47  34 VRB5      30.38S
TAOS           SUNNY     73  43  33 NW6       30.45F
ANGEL FIRE     FAIR      61  50  68 CALM      30.54S

$$
NMZ402-403-502-505>509-291800-
WESTCENTRAL MOUNTAINS/SOUTHWEST MOUNTAINS

CITY           SKY/WX    TMP DP  RH WIND       PRES   REMARKS
GALLUP         SUNNY     79  48  33 S10       30.35S
GRANTS         SUNNY     76  51  41 S10       30.40S
SILVER CITY      N/A     81  48  32 E10G17    30.30R

$$
NMZ407-409-411-412-291800-
SOUTHERN DESERTS

CITY           SKY/WX    TMP DP  RH WIND       PRES   REMARKS
DEMING         MOSUNNY  N/A N/A N/A E8        30.21S
LAS CRUCES     SUNNY     81  55  41 S3        30.23S
HOLLOMAN AFB   SUNNY     84  55  36 VRB7      30.18S
ALAMOGORDO     SUNNY     81  55  41 S3        30.21S
T OR C         SUNNY     80  55  42 NE9       30.25S

$$
NMZ519>523-291800-
CENTRAL VALLEYS/CENTRAL HIGHLANDS

CITY           SKY/WX    TMP DP  RH WIND       PRES   REMARKS
ALBUQUERQUE    MOSUNNY   78  51  38 N9        30.31F
DOUBLE EAGLE   MOSUNNY   79  52  38 NE6       30.36S
MORIARTY ARPT  FAIR      77  49  38 N3        30.38F
CLINES CORNERS SUNNY     74  47  38 E7G18     30.41S
BELEN          FAIR      79  50  36 NW6       30.30F
SOCORRO        FAIR      79  52  38 N8        30.28S

$$
NMZ524>526-539-540-291800-
SOUTHCENTRAL MOUNTAINS

CITY           SKY/WX    TMP DP  RH WIND       PRES   REMARKS
RUIDOSO        SUNNY     72  48  43 MISG      30.42S

$$
NMZ527>531-291800-
NORTHEAST HIGHLANDS/NORTHEAST PLAINS

CITY           SKY/WX    TMP DP  RH WIND       PRES   REMARKS
LAS VEGAS      SUNNY     76  44  32 VRB6      30.42S
RATON          SUNNY     78  43  28 SE7       30.37S
CLAYTON        SUNNY     80  58  46 NE12      30.30R

$$
NMZ532>537-291800-
EASTCENTRAL PLAINS

CITY           SKY/WX    TMP DP  RH WIND       PRES   REMARKS
TUCUMCARI      SUNNY     86  56  35 VRB6      30.21S
CANNON AFB     SUNNY     85  57  38 E15       30.22R
CLOVIS AIRPORT SUNNY     84  57  39 E15       30.24S

$$
NMZ028-029-538-291800-
SOUTHEAST PLAINS

CITY           SKY/WX    TMP DP  RH WIND       PRES   REMARKS
ROSWELL        SUNNY     79  60  52 VRB5      30.21S
ARTESIA        SUNNY     77  61  57 NE8       30.22S
CARLSBAD       NOT AVBL
HOBBS          PTSUNNY   75  64  69 CALM      30.22


$$


USA.gov is the U.S. government's official web portal to all federal, state and local government web resources and services.